Hastings, NE

8:06 AM CST on January 24, 2017 (GMT -0600)
Hastings Municipal

Weather History for KHSI - October, 2011

Change the Weather History Date:

Friday, October 7, 2011

  Actual Average Record
Temperature  
Mean Temperature 75 °F 57 °F  
Max Temperature 82 °F 68 °F 90 °F (1980)
Min Temperature 67 °F 45 °F 22 °F (1952)
Degree Days  
Heating Degree Days 0 9  
Month to date heating degree days 6 57  
Since 1 July heating degree days 164 153  
Cooling Degree Days 10 1  
Month to date cooling degree days 24 7  
Year to date cooling degree days 1119 1070  
Growing Degree Days 23 (Base 50)    
Moisture  
Dew Point 56 °F    
Average Humidity 54    
Maximum Humidity 68    
Minimum Humidity 40    
Precipitation  
Precipitation T in 0.06 in 1.28 in (2007)
Month to date precipitation 0.29 0.49  
Year to date precipitation 24.66 23.71  
Snow  
Snow 0.00 in 0.00 in - ()
Month to date snowfall 0.0 0.1  
Since 1 July snowfall 0.0 0.3  
Since 1 September snowfall 0.0 0.3  
Snow Depth 0.00 in    
Sea Level Pressure  
Sea Level Pressure 29.80 in    
Wind  
Wind Speed 16 mph (South)    
Max Wind Speed 29 mph    
Max Gust Speed 44 mph    
Visibility 10 miles    
Events Thunderstorm    
T = Trace of Precipitation, MM = Missing Value Source: NWS Daily Summary

Daily Weather History Graph

Daily Weather History Graph

Search for Another Location

Airport or City:

Trip Planner

Search our weather history database for the weather conditions in past years. The results will help you decide how hot, cold, wet, or windy it might be!

Date:

Astronomy

Oct. 07, 2011 Rise Set
Actual Time 7:36 AM CDT 7:06 PM CDT
Civil Twilight 7:08 AM CDT 7:33 PM CDT
Nautical Twilight 6:37 AM CDT 8:05 PM CDT
Astronomical Twilight 6:05 AM CDT 8:37 PM CDT
Moon 4:51 PM CDT (10/7) 3:25 AM CDT (10/7)
Length of Visible Light 12h 24m
Length of Day
11h 30m
Waxing Gibbous, 83% of the Moon is Illuminated
Oct 7
Waxing Gibbous
Oct 11
Full
Oct 19
Last Quarter
Oct 26
New
Nov 2
First Quarter

Hourly Weather History & Observations

Time (CDT) Temp. Heat Index Dew Point Humidity Pressure Visibility Wind Dir Wind Speed Gust Speed Precip Events Conditions
12:53 AM 69.1 °F - 44.1 °F 40% 29.72 in 10.0 mi South 21.9 mph 32.2 mph N/A   Clear
1:53 AM 69.1 °F - 45.0 °F 42% 29.69 in 10.0 mi SSE 23.0 mph 36.8 mph N/A   Clear
2:53 AM 68.0 °F - 46.0 °F 45% 29.74 in 10.0 mi South 20.7 mph 31.1 mph N/A   Mostly Cloudy
3:53 AM 66.9 °F - 48.9 °F 52% 29.76 in 10.0 mi South 9.2 mph - 0.00 in   Overcast
4:53 AM 68.0 °F - 52.0 °F 56% 29.75 in 10.0 mi South 10.4 mph - 0.00 in   Overcast
5:53 AM 66.9 °F - 51.1 °F 57% 29.77 in 10.0 mi South 10.4 mph - 0.00 in   Overcast
6:53 AM 66.9 °F - 53.1 °F 61% 29.78 in 10.0 mi South 9.2 mph - N/A   Overcast
7:53 AM 66.9 °F - 53.1 °F 61% 29.78 in 10.0 mi South 12.7 mph 21.9 mph N/A   Overcast
8:53 AM 68.0 °F - 53.1 °F 59% 29.79 in 10.0 mi South 19.6 mph 28.8 mph N/A   Overcast
9:53 AM 71.1 °F - 55.0 °F 57% 29.81 in 10.0 mi South 18.4 mph 32.2 mph N/A   Mostly Cloudy
10:53 AM 73.0 °F - 57.0 °F 57% 29.81 in 10.0 mi South 19.6 mph 33.4 mph N/A   Mostly Cloudy
11:53 AM 73.4 °F - 59.0 °F 61% 29.87 in 10.0 mi South 18.4 mph 27.6 mph N/A   Overcast
12:53 PM 75.9 °F - 61.0 °F 60% 29.81 in 10.0 mi South 17.3 mph 28.8 mph N/A   Overcast
1:53 PM 77.0 °F - 61.0 °F 58% 29.81 in 10.0 mi South 21.9 mph 29.9 mph N/A   Mostly Cloudy
2:53 PM 80.1 °F 81.1 °F 61.0 °F 52% 29.78 in 10.0 mi South 16.1 mph 27.6 mph N/A   Mostly Cloudy
3:28 PM 80.6 °F 81.5 °F 60.8 °F 51% 29.82 in 10.0 mi South 21.9 mph 32.2 mph N/A Thunderstorm Mostly Cloudy
3:53 PM 78.8 °F - 60.8 °F 54% 29.83 in 10.0 mi South 16.1 mph 31.1 mph N/A   Scattered Clouds
4:53 PM 78.1 °F - 62.1 °F 58% 29.78 in 10.0 mi South 16.1 mph 27.6 mph N/A   Mostly Cloudy
5:53 PM 75.9 °F - 62.1 °F 62% 29.77 in 10.0 mi South 26.5 mph 39.1 mph N/A   Partly Cloudy
6:53 PM 73.0 °F - 62.1 °F 68% 29.80 in 10.0 mi South 18.4 mph 28.8 mph N/A   Clear
7:53 PM 72.0 °F - 61.0 °F 68% 29.81 in 10.0 mi South 15.0 mph 28.8 mph N/A   Clear
8:53 PM 71.1 °F - 61.0 °F 70% 29.85 in 10.0 mi South 11.5 mph 20.7 mph N/A   Partly Cloudy
9:53 PM 72.0 °F - 61.0 °F 68% 29.87 in 10.0 mi SSE 11.5 mph - N/A   Overcast
10:53 PM 72.0 °F - 61.0 °F 68% 29.87 in 10.0 mi South 15.0 mph 20.7 mph N/A   Overcast
11:53 PM 71.1 °F - 60.1 °F 68% 29.86 in 10.0 mi SSE 19.6 mph 26.5 mph N/A   Mostly Cloudy